sat.trackr.live / text

‹ back to catalog

KUIPER-00163

NORAD 65777 · 2025-217R

PAYLOAD ACTIVE UNKNOWN

§ Identity

Operator
Country
US
Launch date
2025-09-25
Launch site
AFETR
Launch vehicle
Mass (kg)
RCS (m²)

External: N2YO · Heavens-Above · Gunter

§ Orbital elements

Epoch: 2026-05-25T03:00:38.181024Z

Period
91.05 min
Inclination
51.8952°
Eccentricity
0.0002337
Mean motion
15.81576686 rev/d
Perigee alt
324.4 km
Apogee alt
327.5 km
Semi-major
6,704.1 km
B*
6.0603e-4
RAAN
25.3503°
Arg perigee
167.3085°
Mean anomaly
192.7980°
Rev number
3,674

§ Raw data

KUIPER-001631 65777U 25217R   26145.12544191  .00124858  00000+0  60603-3 0  99992 65777  51.8952  25.3503 0002337 167.3085 192.7980 15.81576686 36746

JSON: /api/v1/satellites/65777 · /tle

For live sub-satellite position, see the globe view (requires WebGL).

§ Visibility from observer

Set your observer location to see the next 7 days of passes ≥ 10°. The values pass through the URL so the page stays shareable.

No JS? Fill the form by hand. The geolocation button needs JavaScript.